Flag for Germany Weather past 2 weeks in Ennepetal, North Rhine-Westphalia, Germany

Now
48 °F

Overcast.


Feels Like: 48 °F
Forecast: 42 / 53 °F
Wind: 2 mph from West

Location: Duesseldorf

Current Time: Oct 23, 2014 at 4:38:48 AM

Latest Report: Oct 23, 2014 at 4:00 AM


Visibility: 13 mi

Pressure: 30.21 "Hg

Humidity: 89%

Dew point: 45 °F

Location of EnnepetalLocation

Historic Weather in Ennepetal — Graph

°F

Ennepetal temperature yesterday

Maximum temperature yesterday: 52 °F (at 2:00 PM)
Minimum temperature yesterday: 45 °F (at 4:00 AM)
Average temperature yesterday: 48 °F

Past Weeks' High & Low Weather Summary

 TemperatureHumidityPressure
High74 °F (Oct 19, 2:00 PM)99% (Oct 11, 8:00 AM)30.21 "Hg (Oct 11, 8:00 AM)
Low44 °F (Oct 21, 11:00 PM)54% (Oct 14, 3:00 PM)29.50 "Hg (Oct 21, 4:00 PM)
Average58 °F82%29.86 "Hg
* Reported Oct 8 3:00 AM — Oct 23 3:00 AM, Ennepetal, Weather by CustomWeather, © 2014

Note: Actual official high and low records may vary slightly from our data, if they occured in-between our weather recording intervals... More about our weather records

Advertising

Ennepetal weather history for previous 24 hours

 ConditionsComfort  
Time TempWeatherWind HumidityBarometerVisibility
3:00 AM
Oct 23
48 °FOvercast.5 mph87%30.21 "Hg16 mi
2:00 AM48 °FOvercast.3 mph87%30.20 "Hg16 mi
1:00 AM49 °FOvercast.3 mph86%30.19 "Hg16 mi
12:00 AM49 °FOvercast.2 mph86%30.19 "Hg16 mi
10:00 PM
Oct 22
49 °FPassing clouds.2 mph85%30.18 "Hg19 mi
9:00 PM50 °FOvercast.3 mph82%30.16 "Hg22 mi
8:00 PM50 °FOvercast.5 mph79%30.15 "Hg25 mi
7:00 PM50 °FPassing clouds.6 mph78%30.12 "Hg25 mi
6:00 PM51 °FScattered clouds.6 mph76%30.11 "Hg25 mi
4:00 PM51 °FSprinkles. Overcast.8 mph84%30.07 "Hg12 mi
3:00 PM50 °FPartly sunny.5 mph86%30.07 "Hg16 mi
2:00 PM52 °FPartly sunny.9 mph74%30.05 "Hg12 mi
1:00 PM51 °FPartly sunny.8 mph76%30.05 "Hg16 mi
12:00 PM49 °FPartly sunny.8 mph80%30.04 "Hg19 mi
10:00 AM45 °FSprinkles. Low clouds.7 mph90%30.02 "Hg14 mi
9:00 AM46 °FOvercast.7 mph84%30.00 "Hg17 mi
8:00 AM46 °FSprinkles. Low clouds.8 mph84%29.97 "Hg16 mi
7:00 AM46 °FPassing clouds.8 mph83%29.95 "Hg19 mi
6:00 AM46 °FPassing clouds.7 mph82%29.93 "Hg19 mi
4:00 AM45 °FPassing clouds.7 mph87%29.90 "Hg25 mi
Weather by CustomWeather, © 2014

See weather overviewHow to use our weather pages